Presure
168 157 167 161 160 166 166 159 156 147 163 159 159 152 168 156 155 166 151 161 176 168 179 181 188 172 163 171 166 172 171 155 169 170 171 159 173 178 160 143 161 135 173 162
159 161 161 151 158 163 157 156 148 150 163 156 163 169 147 156 171 179 186 176 183 180 173 197 181 177 179 160 165 177 165 171 161 156 162 162 165 165 143 162 151 168 183 185
171 165 163 161 157 161 160 156 156 162 159 148 153 156 166 165 174 187 163 179 185 180 160 168 175 169 131 170 183 170 175 175 177 174 177 173 169 179 169 166 191 183 168 160
171 174 182 161 167 161 164 180 176 170 175 171 171 169 151 169 174 187 183 185 188 161 179 165 166 169 120 184 188 173 173 182 167 157 153 175 153 189 176 166 194 181 168 180
197 185 180 178 176 181 187 183 193 199 191 184 176 194 185 173 188 193 185 173 178 169 170 175 118 185 172 172 166 179 176 171 163 192 169 180 182 168 190 178 194 181 182 184
183 183 185 186 180 177 170 174 188 186 181 183 62 175 177 97 105 165 176 150 67 179 183 155 170 187 184 172 172 170 179 140 172 173 191 197 210 198 177 175 172 163 175 181
179 184 186 179 188 188 198 190 180 184 190 183 191 191 184 177 178 118 181 183 184 183 175 101 182 179 178 182 193 160 154 180 184 188 192 175 190 191 189 183 181 165 189 160
205 191 194 200 197 189 186 195 203 185 188 192 188 183 169 144 170 175 175 178 190 189 207 194 228 223 234 215 221 217 211 206 216 202 165 192 171 167 185 184 191 199 202 205
207 205 205 211 214 222 201 215 198 208 208 204 175 186 183 184 80 195 187 189 203 232 112 214 218 185 229 219 206 210 209 210 212 200 207 203 207 144 202 199 192 197 200 199
235 223 220 237 252 229 229 229 220 227 220 232 216 225 204 200 209 199 209 239 147 246 204 211 212 210 212 214 212 171 208 205 209 202 201 201 202 210 200 198 195 197 198 201
212 222 211 207 176 212 204 205 210 191 205 215 208 226 226 229 224 215 216 228 202 230 203 206 204 216 204 209 199 200 202 208 202 196 195 203 203 195 194 197 192 198 194 192
186 175 179 179 179 190 204 204 206 208 233 232 237 202 168 182 188 219 233 209 216 218 203 209 204 207 208 94 199 207 200 203 209 210 208 209 193 194 218 204 203 201 210 209
201 196 196 193 196 196 220 184 186 211 215 217 211 236 220 222 207 208 222 210 216 219 217 212 215 215 115 214 215 213 221 218 222 228 231 223 228 225 234 225 235 204 198 201
205 214 217 206 224 233 241 231 203 212 212 180 208 214 215 201 215 204 209 214 214 215 218 218 227 233 228 227 229 228 241 242 258 246 271 268 275 278 298 266 264 237 226 226
228 237 230 226 233 233 240 243 247 240 252 251 191 197 200 211 216 211 207 211 216 225 228 230 230 235 279 127 243 270 272 272 239 287 285 289 291 283 274 249 269 271 262 244
231 226 221 240 232 227 233 238 236 239 246 247 250 259 253 259 261 256 257 270 268 266 266 247 265 285 287 206 308 300 297 290 306 314 310 308 295 294 291 292 280 268 259 257
238 244 244 241 235 237 241 236 232 233 239 243 244 247 256 253 251 253 259 259 256 262 267 271 271 306 298 296 296 309 431 415 418 421 409 398 402 377 358 325 288 272 280 263
247 242 239 241 243 245 249 233 240 239 241 240 191 245 246 253 256 263 265 266 268 288 283 296 292 294 329 332 398 395 391 372 367 378 391 403 383 389 386 332 316 318 297 270
243 238 239 252 243 244 244 239 253 249 254 246 245 251 255 280 269 263 293 177 292 299 305 313 316 359 350 372 381 356 337 327 340 344 326 305 321 362 364 338 283 309 280 287
248 248 257 264 260 258 230 88 173 272 280 278 266 282 270 264 260 77 292 289 291 292 308 317 340 344 348 342 355 334 321 314 327 302 297 308 325 303 330 287 274 339 262 252
255 263 266 262 264 261 268 268 279 286 279 84 211 222 278 302 295 294 290 285 292 295 357 350 340 329 332 352 346 320 312 304 299 283 293 291 281 277 275 268 267 264 262 268
274 274 267 274 281 276 190 256 237 290 304 301 296 295 88 289 275 273 283 292 327 351 334 329 319 319 329 324 338 322 302 301 284 284 269 269 270 262 267 275 254 254 269 202
289 279 255 267 299 291 287 317 310 306 306 300 299 289 293 288 295 277 278 306 294 300 323 309 269 314 310 302 322 322 279 299 279 275 271 275 274 263 255 261 249 257 242 247
293 304 309 299 307 314 308 302 297 298 307 309 298 306 302 298 303 309 296 292 303 299 310 284 302 310 309 309 299 190 270 301 280 269 274 264 261 250 251 252 244 250 239 239
307 301 301 309 306 295 291 300 297 307 308 303 304 338 346 344 338 313 313 302 295 300 293 293 300 302 301 304 315 310 321 307 278 266 271 262 269 251 254 253 254 248 242 240
289 161 299 303 299 306 317 310 315 355 372 372 370 359 355 274 318 313 302 289 297 287 286 291 293 290 301 304 309 315 306 314 310 282 269 272 262 260 260 250 252 250 258 258
Wind_Speed
109 97 106 110 105 107 108 104 98 85 107 98 98 83 102 100 96 106 80 94 107 98 104 102 102 99 84 86 82 83 78 79 73 72 71 65 73 75 66 55 65 53 63 59
104 106 109 94 107 113 105 101 90 91 110 96 103 105 89 99 112 114 113 103 103 108 101 100 94 98 101 81 84 94 81 84 77 80 73 71 71 71 63 72 69 71 76 73
118 112 115 112 108 116 112 107 108 115 110 91 97 95 104 108 110 112 98 103 100 91 93 97 90 87 80 91 95 92 92 90 89 87 87 84 80 83 79 77 72 77 72 64
117 122 124 108 117 113 114 127 125 123 125 119 120 104 98 109 108 111 105 101 102 85 97 95 94 86 43 103 99 90 93 95 86 85 85 92 80 78 78 77 69 77 66 77
121 127 127 125 123 126 120 121 117 117 122 119 120 120 109 115 113 108 105 95 94 89 100 104 49 103 94 98 94 102 95 92 90 95 88 96 92 80 72 83 64 73 74 72
122 125 124 124 124 120 114 115 120 118 114 106 12 106 101 45 50 88 102 85 18 104 107 97 99 111 108 102 104 100 106 74 97 96 84 85 76 69 92 92 88 86 82 79
121 124 126 121 126 126 125 125 119 119 120 111 117 114 112 116 110 58 105 108 103 105 103 51 116 110 103 96 106 95 73 106 107 97 92 95 92 81 83 87 86 82 78 76
125 126 128 130 126 127 124 129 123 122 120 119 112 109 109 89 104 105 104 102 112 114 117 116 90 90 80 85 79 79 87 92 83 92 100 100 101 95 91 87 83 80 77 79
124 126 128 126 125 123 125 123 121 121 119 120 100 117 119 125 26 117 113 116 113 104 28 88 89 101 88 80 82 82 85 88 86 88 84 88 87 60 88 88 89 86 85 86
103 108 113 101 92 104 105 110 110 108 106 106 103 107 116 120 122 120 118 99 73 87 92 91 93 91 92 91 87 63 87 90 88 87 90 92 91 91 93 93 93 92 91 89
106 107 112 109 93 109 113 114 112 106 104 106 101 90 92 98 106 107 106 102 96 95 92 94 93 98 91 95 95 93 93 96 95 94 97 95 94 98 97 97 97 97 96 93
97 92 97 98 99 98 111 111 114 111 96 97 93 92 104 95 97 108 103 106 108 105 97 99 93 105 105 26 99 103 100 104 108 107 104 104 102 102 101 99 98 101 99 101
106 109 109 105 110 112 110 100 101 110 109 100 105 93 98 101 107 109 112 107 112 113 107 102 103 104 42 120 113 111 119 117 124 126 126 118 122 109 113 104 110 103 100 102
111 114 112 111 111 114 112 110 109 106 112 96 105 109 100 101 110 108 111 115 117 115 114 110 110 118 123 124 128 124 127 128 119 128 124 116 113 110 100 104 104 105 105 107
112 107 110 109 109 114 113 109 102 104 104 106 102 104 97 105 111 112 111 114 119 124 122 124 123 125 120 28 91 121 122 118 105 106 106 105 103 102 102 103 97 97 98 102
114 113 111 109 112 114 110 105 107 108 110 114 112 108 103 106 104 110 116 114 117 119 121 124 122 114 113 70 102 104 102 102 98 95 94 94 96 96 94 93 92 91 93 92
114 116 115 110 117 115 105 103 108 112 116 117 112 106 105 108 107 107 111 110 111 109 110 111 112 105 101 99 96 94 56 56 56 57 57 61 55 71 78 81 83 82 84 84
114 113 113 108 115 114 103 103 112 116 116 116 83 114 113 110 112 117 114 111 111 107 104 102 102 100 91 88 49 47 42 38 41 42 42 45 38 48 52 65 66 66 72 75
115 114 112 111 110 112 96 100 113 116 116 111 109 111 110 102 105 104 96 48 94 95 91 90 89 63 66 43 37 35 34 38 35 26 29 44 38 44 41 40 54 60 63 66
116 116 116 112 111 111 87 21 63 111 106 99 100 97 93 92 94 15 84 93 86 85 82 81 68 59 45 42 32 29 30 30 31 30 32 24 22 23 23 33 45 42 62 67
114 111 109 107 110 105 99 101 101 100 93 23 73 77 84 75 79 77 79 85 85 81 56 46 50 51 46 31 30 33 33 28 30 37 28 25 32 36 38 43 44 49 50 50
102 103 103 98 99 92 50 91 73 89 80 76 77 77 30 71 72 80 80 80 67 46 47 46 49 50 41 33 32 37 41 35 43 40 42 41 40 44 43 49 54 55 57 49
90 96 99 99 90 87 85 77 76 77 73 73 68 71 69 69 67 71 78 60 69 69 48 48 41 46 41 38 33 39 42 45 50 49 45 43 41 45 47 48 55 58 63 62
88 87 89 89 79 80 76 72 75 72 72 68 68 68 68 68 60 55 67 69 66 62 51 48 47 46 45 40 39 41 45 52 55 51 48 50 50 55 55 59 62 62 66 67
78 81 80 80 68 77 74 74 74 73 69 68 68 58 52 40 42 52 53 60 60 49 49 50 47 49 51 49 42 42 48 53 57 53 57 56 60 59 62 65 69 70 70 70
75 41 79 73 73 79 72 75 74 59 47 39 38 36 37 36 40 44 44 42 44 48 52 51 51 52 54 55 56 49 48 54 59 68 61 65 64 63 69 70 76 74 78 80
Wind_Direction
265 269 267 269 274 275 276 277 277 275 280 282 284 284 284 283 287 288 282 288 290 291 292 297 294 295 294 299 297 300 299 283 296 298 299 283 304 305 290 289 287 290 296 279
268 270 268 270 273 272 272 274 273 276 279 280 283 283 277 284 286 287 283 286 287 292 291 290 293 296 298 289 294 301 293 296 288 285 289 289 291 292 293 291 294 294 301 301
265 263 267 269 269 270 271 273 274 276 277 275 275 280 282 283 285 280 283 285 288 291 285 290 293 292 292 292 295 293 294 295 296 296 296 295 293 296 294 293 291 293 293 293
263 266 265 266 268 268 269 271 270 273 274 275 278 278 280 280 282 280 281 285 285 283 291 286 283 291 288 294 295 291 292 296 285 285 287 293 290 288 289 293 282 289 287 291
262 263 266 268 268 271 273 274 273 273 272 272 276 278 277 279 279 281 282 283 285 286 288 287 283 288 292 294 283 290 291 288 281 291 286 290 289 288 282 289 280 286 284 280
262 265 266 265 267 269 269 272 273 274 273 275 279 276 278 276 281 278 281 283 273 284 284 283 287 291 288 287 287 286 289 286 288 287 284 283 280 280 286 288 288 291 288 282
265 265 265 266 267 269 269 270 272 274 273 276 274 277 279 279 279 276 280 282 284 287 286 282 287 285 282 282 282 279 283 284 285 284 283 286 282 280 279 279 281 286 278 285
259 262 264 265 267 269 270 271 269 271 274 274 275 277 276 278 277 279 281 285 284 281 282 281 283 284 283 279 284 281 282 280 282 276 282 278 285 283 283 280 281 280 277 274
262 262 262 265 268 270 270 271 270 271 271 270 273 275 276 278 300 279 281 281 281 283 274 279 282 279 288 279 278 281 282 284 284 281 283 280 281 269 277 278 280 280 279 278
265 264 266 269 272 273 273 274 272 274 273 276 275 272 271 275 276 278 280 284 287 285 279 283 285 286 286 284 282 286 278 278 280 276 278 279 279 279 277 277 278 279 281 283
264 262 264 267 263 268 271 273 273 272 275 275 275 277 280 280 280 281 282 282 283 282 282 284 283 285 280 284 278 277 279 282 275 271 273 275 273 273 275 275 280 278 280 281
265 265 267 269 269 271 270 271 273 275 275 275 273 273 273 275 276 279 272 281 283 280 279 283 283 286 285 266 277 282 277 279 279 277 274 273 272 274 272 270 272 273 272 272
267 268 268 270 273 272 268 271 274 274 275 275 273 271 272 271 277 279 276 279 279 280 281 279 280 280 272 281 278 276 277 277 276 275 274 273 273 272 272 268 274 270 275 273
266 266 267 269 272 274 275 272 271 273 273 270 276 275 273 275 273 276 279 279 280 280 280 280 280 279 276 275 276 276 275 274 274 276 276 273 273 274 271 270 270 269 269 268
270 271 271 272 274 275 276 277 278 277 277 274 271 273 274 274 273 274 277 277 278 279 278 277 280 278 279 264 278 278 277 275 275 274 273 272 270 270 269 271 268 267 267 269
271 271 272 275 275 273 275 278 280 280 277 275 277 277 278 274 272 270 270 274 275 276 277 275 277 281 281 273 281 281 280 279 278 275 272 269 267 267 266 266 265 266 267 267
272 272 272 274 275 274 277 277 276 277 278 279 280 282 279 277 278 279 277 275 275 278 279 279 280 282 281 282 281 281 278 276 274 269 264 263 261 259 260 261 261 262 260 263
271 271 273 274 274 275 275 277 276 276 276 278 281 282 279 281 280 279 279 280 282 281 281 281 281 282 286 286 286 282 282 284 284 279 273 268 261 258 250 253 253 252 252 255
271 272 272 272 273 274 278 279 274 275 276 278 278 277 280 282 280 283 283 275 281 283 285 287 288 288 289 290 276 275 268 274 283 254 245 259 260 264 237 244 253 254 251 251
269 270 273 273 275 275 278 259 274 277 280 278 277 280 279 279 280 244 286 281 280 282 287 291 286 287 289 290 271 253 261 272 267 244 252 248 232 231 219 233 245 247 250 253
268 269 271 272 272 274 277 277 276 276 277 268 273 274 279 280 282 283 281 283 287 288 280 276 279 284 289 279 260 241 243 243 239 241 226 219 219 231 228 234 236 246 250 248
267 270 273 272 272 275 261 275 272 274 276 275 276 277 280 276 275 280 278 282 281 277 279 277 282 284 288 281 259 243 238 228 228 227 238 239 239 241 238 237 242 241 244 259
264 267 270 272 271 274 273 272 272 273 276 276 276 274 275 273 276 276 279 277 284 283 278 279 280 280 284 278 260 243 252 225 228 233 236 228 227 228 234 233 241 241 251 251
265 266 268 269 272 272 273 274 273 272 273 274 277 277 277 276 274 260 268 277 273 278 276 277 279 282 279 273 271 271 261 235 229 236 232 231 228 240 237 238 246 243 254 255
266 266 269 270 271 270 270 270 272 274 277 275 273 271 267 259 240 254 259 260 266 271 276 281 286 284 284 282 276 262 246 237 236 244 233 238 230 240 237 239 239 247 254 258
266 261 267 269 268 269 271 272 273 273 268 262 257 250 237 259 250 257 264 266 267 272 277 282 282 283 283 281 279 270 251 241 236 234 238 235 241 239 235 245 245 253 247 248